Regional Weather Roundup
Issued by NWS Green Bay, WI

Home | Current Version | Previous Version | Text Only | Print | Product List | Glossary On
Versions: 1 2 3 4 5 6 7 8 9 10 11 12 13 14 15 16 17 18 19 20 21 22 23 24 25 26 27 28 29 30 31 32 33 34 35 36 37 38 39 40 41 42 43 44 45 46 47 48 49 50
000
ASUS43 KGRB 232059
RWRGRB

NORTH-CENTRAL AND NORTHEAST WISCONSIN REGIONAL WEATHER ROUNDUP
NATIONAL WEATHER SERVICE GREEN BAY WI
300 PM CST SUN NOV 23 2014

WIZ005-009-010>012-018-019-232200-
NORTH CENTRAL WISCONSIN

CITY           SKY/WX    TMP DP  RH WIND       PRES   REMARKS
IRONWOOD       CLOUDY    46  46 100 S7        29.36S
MANITOWISH WTR NOT AVBL
ARBOR VITAE    NOT AVBL
EAGLE RIVER    NOT AVBL
LAND O LAKES   NOT AVBL
RHINELANDER    FOG       44  44 100 S5        29.42F VSB 1/4
PHILLIPS       FOG       42  42 100 SE3       29.39F VSB<1/4
ANTIGO         NOT AVBL
TOMAHAWK       NOT AVBL
MERRILL        NOT AVBL
$$

WIZ013-073-232200-
NORTHEAST WISCONSIN

CITY           SKY/WX    TMP DP  RH WIND       PRES   REMARKS
IRON MOUNTAIN  FOG       42  41  96 SE5       29.45F VSB<1/4
MARINETTE      CLOUDY    45  43  93 S12       29.48S VSB 1
$$

WIZ017-030-035>037-045-232200-
CENTRAL WISCONSIN

CITY           SKY/WX    TMP DP  RH WIND       PRES   REMARKS
MEDFORD        NOT AVBL
WAUSAU         LGT RAIN  46  46 100 CALM      29.40F VSB 1/4
MOSINEE        FOG       46  46 100 CALM      29.42F VSB 1/8
MARSHFIELD     LGT RAIN  48  47  96 S5        29.40F VSB 1/4
WISC RAPIDS    LGT RAIN  49  47  93 S6        29.43F FOG
STEVENS POINT  NOT AVBL
WAUPACA        NOT AVBL
SHAWANO        NOT AVBL
CLINTONVILLE   NOT AVBL
$$

WIZ038-039-048-051-232200-
FOX VALLEY

CITY           SKY/WX    TMP DP  RH WIND       PRES   REMARKS
NWS GREEN BAY  LGT RAIN  47  46  97 S5        29.47F VSB 3/4
APPLETON       LGT RAIN  46  46 100 S9        29.47F FOG
OSHKOSH        LGT RAIN  48  46  93 S3        29.47F FOG
FOND DU LAC    RAIN      49  46  90 S9        29.45F FOG
$$

WIZ022-050-052-232200-
EAST CENTRAL WISCONSIN

CITY           SKY/WX    TMP DP  RH WIND       PRES   REMARKS
STURGEON BAY   CLOUDY    45  43  93 S13       29.49F
MANITOWOC      NOT AVBL
SHEBOYGAN      LGT RAIN  45  43  93 S9        29.49F FOG
$$

LMZ563-521-522-541>543-232200-
LAKESHORE

STATION/POSITION TIME  TEMP    WIND        PRES    VSBY  WAVE
                       AIR SEA DIR/SP/G                  HT/PER
                 (UTC) (F)     (DEG/KT/KT) (MB)    (MI)  (FT/S)
SHEBOYGAN LKSHOR 2000   43 40  180/ 14/ 15  999.9F
KEWAUNEE LKSHORE 2000   40     180/  9/ 11  998.8F
ALGOMA MARINA    2000          220/ 13/ 15   N/A
TWO RIVERS CG    2000   41                 1005.6   1 1/4  2
NORTHPORT PIER   2000   42     150/  9/ 13  999.7F
N MID LAKE BUOY  2000   45 42  200/ 19/ 23 1000.6F         6/ 6
SISTER BAY LKSHO 2000          150/ 14/ 17   N/A
CHAMBERS ISLAND  2000   47     150/  3/  7  999.0F
MENOMINEE LKSHOR 2000   41     140/  6/  6  999.4F
$$



USA.gov is the U.S. government's official web portal to all federal, state and local government web resources and services.